Location: Vancouver
(49.2500°N, 123.1330°W)
Time: 13:20:10
(UTC-07:00)

ISS - All Passes

Search period start: 23 July 2014 00:00
Search period end: 02 August 2014 00:00
Orbit: 411 x 420 km, 51.6° (Epoch: 23 July)

Date Brightness Start Highest point End Pass type
(mag) Time Alt. Az. Time Alt. Az. Time Alt. Az.
23 Jul - 02:17:50 10° S 02:20:12 18° SE 02:22:34 10° E visible
23 Jul - 03:53:09 10° WSW 03:56:30 77° SSE 03:59:53 10° ENE visible
23 Jul - 05:30:03 10° W 05:33:22 55° N 05:36:42 10° ENE daylight
23 Jul - 07:06:55 10° WNW 07:10:18 82° NNE 07:13:40 10° ESE daylight
23 Jul - 08:43:54 10° W 08:46:47 26° SW 08:49:39 10° SSE daylight
24 Jul - 01:30:23 10° SSE 01:31:38 12° SE 01:32:54 10° ESE visible
24 Jul - 03:04:29 10° SW 03:07:46 54° SSE 03:11:04 10° ENE visible
24 Jul - 04:41:11 10° W 04:44:31 59° N 04:47:52 10° ENE visible
24 Jul - 06:18:07 10° WNW 06:21:29 67° NNE 06:24:51 10° E daylight
24 Jul - 07:54:57 10° WNW 07:58:08 39° SSW 08:01:17 10° SE daylight
25 Jul - 02:15:57 10° SW 02:19:04 37° SSE 02:22:13 10° E visible
25 Jul - 03:52:20 10° W 03:55:41 68° NNW 03:59:03 10° ENE visible
25 Jul - 05:29:19 10° WNW 05:32:39 58° N 05:35:59 10° E daylight
25 Jul - 07:06:06 10° WNW 07:09:25 58° SSW 07:12:44 10° SE daylight
25 Jul - 08:44:04 10° WSW 08:45:35 13° SW 08:47:05 10° SSW daylight
26 Jul - 01:27:36 10° SSW 01:30:25 25° SE 01:33:14 10° E visible
26 Jul - 03:03:30 10° WSW 03:06:52 85° NNW 03:10:16 10° ENE visible
26 Jul - 04:40:28 10° WNW 04:43:48 54° N 04:47:07 10° E visible
26 Jul - 06:17:17 10° WNW 06:20:40 81° SSW 06:24:02 10° ESE daylight
26 Jul - 07:54:32 10° W 07:57:01 19° SW 07:59:29 10° S daylight
27 Jul - 00:39:36 10° S 00:41:49 17° SE 00:44:02 10° E visible
27 Jul - 02:14:45 10° WSW 02:18:06 73° SSE 02:21:27 10° ENE visible
27 Jul - 03:51:37 10° W 03:54:56 55° N 03:58:16 10° ENE visible
27 Jul - 05:28:29 10° WNW 05:31:52 79° NNE 05:35:15 10° ESE daylight
27 Jul - 07:05:26 10° W 07:08:23 29° SW 07:11:20 10° SSE daylight
27 Jul - 23:52:30 10° SSE 23:53:16 11° SE 23:54:02 10° ESE night (unlit)
28 Jul - 01:26:05 10° SW 01:29:21 51° SSE 01:32:38 10° ENE visible
28 Jul - 03:02:44 10° W 03:06:05 60° N 03:09:26 10° ENE visible
28 Jul - 04:39:41 10° WNW 04:43:03 64° NNE 04:46:24 10° E visible
28 Jul - 06:16:30 10° WNW 06:19:43 42° SSW 06:22:55 10° SE daylight
29 Jul - 00:37:35 10° SSW 00:40:39 34° SSE 00:43:44 10° E visible
29 Jul - 02:13:53 10° W 02:17:14 71° NNW 02:20:37 10° ENE visible
29 Jul - 03:50:52 10° WNW 03:54:12 57° N 03:57:31 10° E visible
29 Jul - 05:27:39 10° WNW 05:30:59 62° SSW 05:34:19 10° SE daylight
29 Jul - 07:05:25 10° WSW 07:07:11 14° SW 07:08:57 10° SSW daylight
29 Jul - 23:49:17 10° SSW 23:52:00 23° SE 23:54:44 10° E visible
30 Jul - 01:25:03 10° WSW 01:28:25 89° NNW 01:31:48 10° ENE visible
30 Jul - 03:02:01 10° WNW 03:05:20 54° N 03:08:39 10° E visible
30 Jul - 04:38:50 10° WNW 04:42:13 85° SSW 04:45:35 10° ESE visible
30 Jul - 06:16:00 10° W 06:18:36 21° SW 06:21:11 10° SSE daylight
30 Jul - 23:01:21 10° S 23:03:24 15° SE 23:05:27 10° E night (unlit)
31 Jul - 00:36:18 10° WSW 00:39:38 68° SSE 00:42:59 10° ENE visible
31 Jul - 02:13:08 10° W 02:16:28 56° N 02:19:47 10° ENE visible
31 Jul - 03:50:02 10° WNW 03:53:24 75° NNE 03:56:46 10° ESE visible
31 Jul - 05:26:56 10° W 05:29:57 31° SW 05:32:58 10° SSE daylight
31 Jul - 23:47:40 10° SW 23:50:54 47° SSE 23:54:09 10° ENE visible
01 Aug - 01:24:16 10° W 01:27:36 62° N 01:30:57 10° ENE visible
01 Aug - 03:01:13 10° WNW 03:04:34 63° N 03:07:55 10° E visible
01 Aug - 04:38:01 10° WNW 04:41:15 45° SSW 04:44:29 10° SE visible
01 Aug - 22:59:11 10° SSW 23:02:12 32° SE 23:05:14 10° E visible
